timestamp,wind_dir_avg,wind_spd_avg,wind_spd_max_dir,wind_spd_gust,battery_voltage,lat,long
2024-03-31 00:04:01+00:00,196.0,5.89,208.0,7.15,12.25,47.59359,-54.27349
2024-03-31 00:14:00+00:00,205.0,7.1,206.0,8.08,12.17,47.59359,-54.27349
2024-03-31 00:24:00+00:00,209.0,7.56,216.0,8.66,12.17,47.59359,-54.27349
2024-03-31 00:34:00+00:00,213.0,7.33,212.0,8.17,12.17,47.59359,-54.27349
2024-03-31 00:44:00+00:00,212.0,8.3,232.0,11.33,12.17,47.59359,-54.27349
2024-03-31 00:54:00+00:00,216.0,8.79,231.0,11.51,12.17,47.59359,-54.27349
2024-03-31 01:04:00+00:00,212.0,7.04,222.0,8.02,12.17,47.59359,-54.27349
2024-03-31 01:14:00+00:00,218.0,7.59,235.0,10.62,12.17,47.59359,-54.27349
2024-03-31 01:24:00+00:00,214.0,6.8,229.0,8.79,12.17,47.59359,-54.27349
2024-03-31 01:34:00+00:00,217.0,6.73,235.0,10.15,12.17,47.59359,-54.27349
2024-03-31 01:44:00+00:00,220.0,7.04,236.0,10.93,12.17,47.59359,-54.27349
2024-03-31 01:54:00+00:00,222.0,5.69,232.0,6.87,12.17,47.59359,-54.27349
2024-03-31 02:04:00+00:00,228.0,6.1,241.0,9.99,12.17,47.59359,-54.27349
2024-03-31 02:14:00+00:00,219.0,5.38,218.0,6.08,12.17,47.59359,-54.27349
2024-03-31 02:24:00+00:00,219.0,4.77,221.0,5.63,12.17,47.59359,-54.27349
2024-03-31 02:34:00+00:00,190.0,3.81,232.0,6.5,12.17,47.59359,-54.27349
2024-03-31 02:44:00+00:00,202.0,4.8,215.0,5.81,12.17,47.59359,-54.27349
2024-03-31 02:54:00+00:00,213.0,4.73,220.0,5.82,12.17,47.59359,-54.27349
2024-03-31 03:04:00+00:00,207.0,4.62,215.0,5.7,12.17,47.59359,-54.27349
2024-03-31 03:14:00+00:00,223.0,4.49,219.0,5.37,12.17,47.59359,-54.27349
2024-03-31 03:24:00+00:00,201.0,4.41,214.0,5.62,12.17,47.59359,-54.27349
2024-03-31 03:34:00+00:00,181.0,3.43,222.0,4.9,12.17,47.59359,-54.27349
2024-03-31 03:44:00+00:00,161.0,4.5,164.0,4.98,12.17,47.59359,-54.27349
2024-03-31 03:54:00+00:00,171.0,3.77,214.0,5.61,12.17,47.59359,-54.27349
2024-03-31 04:04:00+00:00,231.0,4.69,232.0,5.2,12.17,47.59359,-54.27349
2024-03-31 04:14:01+00:00,169.0,3.74,164.0,4.33,12.09,47.59359,-54.27349
2024-03-31 04:24:01+00:00,164.0,4.02,162.0,4.39,12.09,47.59359,-54.27349
2024-03-31 04:34:01+00:00,172.0,3.59,201.0,4.15,12.09,47.59359,-54.27349
2024-03-31 04:44:01+00:00,212.0,4.37,218.0,5.33,12.09,47.59359,-54.27349
2024-03-31 04:54:01+00:00,216.0,3.7,225.0,6.37,12.09,47.59359,-54.27349
2024-03-31 05:04:01+00:00,193.0,3.78,219.0,5.22,12.09,47.59359,-54.27349
2024-03-31 05:14:00+00:00,181.0,3.31,223.0,4.48,12.09,47.59359,-54.27349
2024-03-31 05:24:00+00:00,181.0,3.43,224.0,4.6,12.09,47.59359,-54.27349
2024-03-31 05:34:00+00:00,184.0,4.28,211.0,5.49,12.09,47.59359,-54.27349
2024-03-31 05:44:00+00:00,183.0,4.63,214.0,5.59,12.09,47.59359,-54.27349
2024-03-31 05:54:00+00:00,205.0,5.59,214.0,6.69,12.09,47.59359,-54.27349
2024-03-31 06:04:00+00:00,218.0,5.29,219.0,5.78,12.09,47.59359,-54.27349
2024-03-31 06:14:00+00:00,203.0,5.06,212.0,6.08,12.09,47.59359,-54.27349
2024-03-31 06:24:00+00:00,218.0,5.21,218.0,5.72,12.09,47.59359,-54.27349
2024-03-31 06:34:00+00:00,216.0,6.4,216.0,7.3,12.09,47.59359,-54.27349
2024-03-31 06:44:00+00:00,218.0,6.0,232.0,6.71,12.09,47.59359,-54.27349
2024-03-31 06:54:00+00:00,216.0,5.96,232.0,7.93,12.09,47.59359,-54.27349
2024-03-31 07:04:00+00:00,205.0,5.6,213.0,6.61,12.09,47.59359,-54.27349
2024-03-31 07:14:00+00:00,214.0,6.06,226.0,7.32,12.09,47.59359,-54.27349
2024-03-31 07:24:00+00:00,212.0,5.6,217.0,6.46,12.09,47.59359,-54.27349
2024-03-31 07:34:00+00:00,214.0,6.38,227.0,7.56,12.09,47.59359,-54.27349
2024-03-31 07:44:00+00:00,207.0,4.74,214.0,5.77,12.09,47.59359,-54.27349
2024-03-31 07:54:00+00:00,195.0,3.76,218.0,5.45,12.09,47.59359,-54.27349
2024-03-31 08:04:00+00:00,202.0,4.27,219.0,5.34,12.09,47.59359,-54.27349
2024-03-31 08:14:00+00:00,213.0,4.28,219.0,5.35,12.01,47.59359,-54.27349
2024-03-31 08:24:00+00:00,166.0,3.81,164.0,4.39,12.01,47.59359,-54.27349
2024-03-31 08:34:00+00:00,195.0,3.63,217.0,5.38,12.01,47.59359,-54.27349
2024-03-31 08:44:00+00:00,174.0,4.02,217.0,5.48,12.01,47.59359,-54.27349
2024-03-31 08:54:00+00:00,209.0,4.66,218.0,5.76,12.01,47.59359,-54.27349
2024-03-31 09:04:00+00:00,208.0,4.85,216.0,5.76,12.01,47.59359,-54.27349
2024-03-31 09:14:00+00:00,165.0,3.74,219.0,4.81,12.01,47.59359,-54.27349
2024-03-31 09:24:00+00:00,194.0,4.35,217.0,5.35,12.01,47.59359,-54.27349
2024-03-31 09:34:00+00:00,207.0,5.78,216.0,6.46,12.01,47.59359,-54.27349
2024-03-31 09:44:00+00:00,212.0,6.56,209.0,7.14,12.01,47.59359,-54.27349
2024-03-31 09:54:00+00:00,209.0,6.3,212.0,7.15,12.01,47.59359,-54.27349
2024-03-31 10:04:00+00:00,211.0,6.66,209.0,7.6,12.01,47.59359,-54.27349
2024-03-31 10:14:00+00:00,212.0,6.14,213.0,6.75,12.01,47.59359,-54.27349
2024-03-31 10:24:00+00:00,207.0,5.38,214.0,6.34,12.01,47.59359,-54.27349
2024-03-31 10:34:00+00:00,210.0,6.24,214.0,7.44,12.01,47.59359,-54.27349
2024-03-31 10:44:00+00:00,208.0,5.68,212.0,6.77,12.01,47.59359,-54.27349
2024-03-31 10:54:00+00:00,215.0,5.9,213.0,6.91,12.01,47.59359,-54.27349
2024-03-31 11:04:00+00:00,211.0,5.35,213.0,6.17,12.01,47.59359,-54.27349
2024-03-31 11:14:00+00:00,212.0,5.96,209.0,6.71,12.81,47.59359,-54.27349
2024-03-31 11:24:00+00:00,203.0,4.88,206.0,6.0,12.81,47.59359,-54.27349
2024-03-31 11:34:00+00:00,207.0,4.81,217.0,5.85,12.81,47.59359,-54.27349
2024-03-31 11:44:00+00:00,210.0,5.89,214.0,6.74,12.81,47.59359,-54.27349
2024-03-31 11:54:00+00:00,202.0,5.58,213.0,6.68,12.81,47.59359,-54.27349
2024-03-31 12:04:00+00:00,207.0,6.12,211.0,7.02,12.81,47.59359,-54.27349
2024-03-31 12:14:01+00:00,188.0,5.21,211.0,6.42,13.68,47.59359,-54.27349
2024-03-31 12:24:01+00:00,199.0,5.45,210.0,6.79,13.68,47.59359,-54.27349
2024-03-31 12:34:01+00:00,209.0,6.74,208.0,7.48,13.68,47.59359,-54.27349
2024-03-31 12:44:01+00:00,207.0,6.9,215.0,7.8,13.68,47.59359,-54.27349
2024-03-31 12:54:01+00:00,207.0,6.23,206.0,7.32,13.68,47.59359,-54.27349
2024-03-31 13:04:01+00:00,211.0,6.09,208.0,6.86,13.68,47.59359,-54.27349
2024-03-31 13:14:01+00:00,210.0,6.29,213.0,6.79,13.6,47.59359,-54.27349
2024-03-31 13:24:01+00:00,209.0,7.28,206.0,8.12,13.6,47.59359,-54.27349
2024-03-31 13:34:01+00:00,210.0,7.6,220.0,9.18,13.6,47.59359,-54.27349
2024-03-31 13:44:01+00:00,204.0,7.66,214.0,9.44,13.6,47.59359,-54.27349
2024-03-31 13:54:01+00:00,208.0,8.45,228.0,11.16,13.6,47.59359,-54.27349
2024-03-31 14:04:01+00:00,211.0,8.57,220.0,10.12,13.6,47.59359,-54.27349
2024-03-31 14:14:00+00:00,209.0,8.28,230.0,10.58,14.0,47.59359,-54.27349
2024-03-31 14:24:00+00:00,209.0,8.03,220.0,10.32,14.0,47.59359,-54.27349
2024-03-31 14:34:00+00:00,207.0,7.51,221.0,9.25,14.0,47.59359,-54.27349
2024-03-31 14:44:00+00:00,212.0,8.91,228.0,11.05,14.0,47.59359,-54.27349
2024-03-31 14:54:00+00:00,207.0,8.46,229.0,10.9,14.0,47.59359,-54.27349
2024-03-31 15:04:00+00:00,207.0,8.49,226.0,11.54,14.0,47.59359,-54.27349
2024-03-31 15:14:00+00:00,207.0,9.06,225.0,11.86,13.6,47.59359,-54.27349
2024-03-31 15:24:00+00:00,217.0,10.16,224.0,12.14,13.6,47.59359,-54.27349
2024-03-31 15:34:00+00:00,203.0,8.7,205.0,10.08,13.6,47.59359,-54.27349
2024-03-31 15:44:00+00:00,315.0,0.01,206.0,0.0,13.6,47.59359,-54.27349
2024-03-31 15:54:00+00:00,224.0,11.9,225.0,11.94,13.6,47.59359,-54.27349
2024-03-31 16:04:00+00:00,208.0,9.09,222.0,11.45,13.6,47.59359,-54.27349
2024-03-31 16:14:00+00:00,205.0,8.86,217.0,10.44,14.16,47.59359,-54.27349
2024-03-31 16:24:00+00:00,205.0,8.84,218.0,9.92,14.16,47.59359,-54.27349
2024-03-31 16:34:00+00:00,315.0,0.01,176.0,0.0,14.16,47.59359,-54.27349
2024-03-31 16:44:00+00:00,216.0,9.07,226.0,11.55,14.16,47.59359,-54.27349
2024-03-31 16:54:00+00:00,228.0,9.22,229.0,11.47,14.16,47.59359,-54.27349
2024-03-31 17:04:00+00:00,222.0,6.89,242.0,9.8,14.16,47.59359,-54.27349
2024-03-31 17:14:00+00:00,315.0,0.01,233.0,0.0,13.6,47.59359,-54.27349
2024-03-31 17:24:00+00:00,315.0,0.01,233.0,0.0,13.6,47.59359,-54.27349
2024-03-31 17:34:00+00:00,315.0,0.01,169.0,0.0,13.6,47.59359,-54.27349
2024-03-31 17:44:00+00:00,315.0,0.01,169.0,0.0,13.6,47.59359,-54.27349
2024-03-31 17:54:00+00:00,315.0,0.01,169.0,0.0,13.6,47.59359,-54.27349
2024-03-31 18:04:00+00:00,315.0,0.01,169.0,0.0,13.6,47.59359,-54.27349
2024-03-31 18:14:00+00:00,229.0,8.26,237.0,10.65,13.53,47.59359,-54.27349
2024-03-31 18:24:00+00:00,210.0,6.36,213.0,7.02,13.53,47.59359,-54.27349
2024-03-31 18:34:00+00:00,178.0,5.11,210.0,6.26,13.53,47.59359,-54.27349
2024-03-31 18:44:00+00:00,187.0,6.13,205.0,7.42,13.53,47.59359,-54.27349
2024-03-31 18:54:00+00:00,188.0,6.06,203.0,7.29,13.53,47.59359,-54.27349
2024-03-31 19:04:00+00:00,209.0,6.53,208.0,7.91,13.53,47.59359,-54.27349
2024-03-31 19:14:00+00:00,189.0,7.51,202.0,8.61,13.6,47.59359,-54.27349
2024-03-31 19:24:00+00:00,204.0,7.74,203.0,8.49,13.6,47.59359,-54.27349
2024-03-31 19:34:00+00:00,199.0,8.52,203.0,9.49,13.6,47.59359,-54.27349
2024-03-31 19:44:00+00:00,186.0,7.79,202.0,8.72,13.6,47.59359,-54.27349
2024-03-31 19:54:00+00:00,187.0,5.86,209.0,7.04,13.6,47.59359,-54.27349
2024-03-31 20:04:00+00:00,188.0,6.0,204.0,6.92,13.6,47.59359,-54.27349
2024-03-31 20:14:00+00:00,160.0,5.36,163.0,5.68,13.6,47.59359,-54.27349
2024-03-31 20:24:00+00:00,155.0,5.66,158.0,6.06,13.6,47.59359,-54.27349
2024-03-31 20:34:00+00:00,161.0,5.85,158.0,6.31,13.6,47.59359,-54.27349
2024-03-31 20:44:00+00:00,163.0,6.53,163.0,7.06,13.6,47.59359,-54.27349
2024-03-31 20:54:00+00:00,166.0,5.82,166.0,6.42,13.6,47.59359,-54.27349
2024-03-31 21:04:00+00:00,164.0,5.58,165.0,5.99,13.6,47.59359,-54.27349
2024-03-31 21:14:01+00:00,159.0,3.96,158.0,4.44,13.29,47.59359,-54.27349
2024-03-31 21:24:01+00:00,200.0,2.47,147.0,3.48,13.29,47.59359,-54.27349
2024-03-31 21:34:01+00:00,272.0,3.85,272.0,7.15,13.29,47.59359,-54.27349
2024-03-31 21:44:01+00:00,263.0,4.33,266.0,5.32,13.29,47.59359,-54.27349
2024-03-31 21:54:01+00:00,260.0,2.58,270.0,3.19,13.29,47.59359,-54.27349
2024-03-31 22:04:01+00:00,238.0,3.08,245.0,4.21,13.29,47.59359,-54.27349
2024-03-31 22:14:00+00:00,239.0,3.04,240.0,3.5,12.73,47.59359,-54.27349
2024-03-31 22:24:00+00:00,236.0,3.56,236.0,4.15,12.73,47.59359,-54.27349
2024-03-31 22:34:00+00:00,196.0,2.52,230.0,3.83,12.73,47.59359,-54.27349
2024-03-31 22:44:00+00:00,258.0,4.1,254.0,4.7,12.73,47.59359,-54.27349
2024-03-31 22:54:00+00:00,249.0,3.64,249.0,4.51,12.73,47.59359,-54.27349
2024-03-31 23:04:00+00:00,254.0,3.82,250.0,4.92,12.73,47.59359,-54.27349
2024-03-31 23:14:00+00:00,239.0,4.23,256.0,5.1,12.25,47.59359,-54.27349
2024-03-31 23:24:00+00:00,218.0,4.04,221.0,4.92,12.25,47.59359,-54.27349
2024-03-31 23:34:00+00:00,211.0,5.07,214.0,5.87,12.25,47.59359,-54.27349
2024-03-31 23:44:00+00:00,182.0,3.48,218.0,5.12,12.25,47.59359,-54.27349
2024-03-31 23:54:00+00:00,217.0,4.63,219.0,5.35,12.25,47.59359,-54.27349
